Regional Weather Roundup
Issued by NWS

Home | Current Version | Previous Version | Text Only | Print | Product List | Glossary On
Versions: 1 2 3 4 5 6 7 8 9 10 11 12 13 14 15 16 17 18 19 20 21 22 23 24 25 26 27 28 29 30 31 32 33 34 35 36 37 38 39 40 41 42 43 44 45 46 47 48 49 50
044
ASUS45 KPSR 231010
RWRAZ

ARIZONA HOURLY REGIONAL WEATHER ROUNDUP
NATIONAL WEATHER SERVICE PHOENIX AZ
300 AM MST THU FEB 23 2017

NOTE: FAIR INDICATES FEW OR NO CLOUDS BELOW 12,000 FEET WITH NO
SIGNIFICANT WEATHER AND/OR OBSTRUCTIONS TO VISIBILITY.

AZZ001>003-036-231100-
NORTHWEST ARIZONA

CITY           SKY/WX    TMP DP  RH WIND       PRES   REMARKS
BULLHEAD CITY  CLEAR     50  27  40 SE9       29.89R
KINGMAN        CLEAR     38  19  46 SW13      29.86S WCI  30
$$

AZZ004>008-015-016-018-231100-
NORTH CENTRAL ARIZONA

CITY           SKY/WX    TMP DP  RH WIND       PRES   REMARKS
GRAND CANYON   FLURRIES  27  24  89 W10       29.75F WCI  17
WILLIAMS       CLOUDY    28  19  69 W10G17    29.80R WCI  19
PRESCOTT       CLEAR     36  12  37 VRB5      29.82F WCI  32
FLAGSTAFF      CLEAR     30  16  56 W13G26    29.77S WCI  20
PAYSON         CLEAR     43  28  56 SW5       29.85R
PAGE           CLOUDY    38  15  39 NW10G22   29.73R WCI  31
$$

AZZ009>014-017-231100-
NORTHEAST ARIZONA

CITY           SKY/WX    TMP DP  RH WIND       PRES   REMARKS
WINSLOW        CLEAR     44  30  57 SW21G31   29.71F
SAINT JOHNS    CLEAR     49  29  46 W26G36    29.71F
WINDOW ROCK    CLOUDY    41  23  48 SW17      29.71F
SHOW LOW       CLEAR     39  27  60 SW31G41   29.75S WCI  27
$$

AZZ023-231100-
GREATER PHOENIX AREA

CITY           SKY/WX    TMP DP  RH WIND       PRES   REMARKS
PHOENIX        PTCLDY    55  38  52 SW3       29.84R
BUCKEYE        CLEAR     48  32  53 W9        29.86S
LUKE AFB       CLEAR     56  20  25 W12       29.82R
DEER VALLEY    CLEAR     53  28  38 W15       29.82R
SCOTTSDALE     CLEAR     55  27  34 W8        29.84R
MESA-GATEWAY   CLEAR     55  32  41 W15G21    29.86R
$$

AZZ027-028-231100-
SOUTHWEST MARICOPA COUNTY AND PINAL COUNTY

CITY           SKY/WX    TMP DP  RH WIND       PRES   REMARKS
CASA GRANDE    NOT AVBL
GILA BEND      FAIR      53  29  39 W9        29.88S
$$

AZZ503-504-507>509-231100-
SOUTHEAST ARIZONA

CITY           SKY/WX    TMP DP  RH WIND       PRES   REMARKS
TUCSON         CLEAR     58  35  42 N15G23    29.89R
DAVIS-MONTHAN  CLEAR     57  35  43 NW25      29.87R
NOGALES        CLEAR     54  42  64 S5        29.89F
SIERRA VISTA   CLEAR     57  37  47 SW17      29.88F
DOUGLAS        MOCLDY    59  37  44 VRB3      29.87F
SAFFORD        CLEAR     60  29  30 NW18G28   29.75F
$$

AZZ020-021-025-026-031-231100-
SOUTHWEST ARIZONA

CITY           SKY/WX    TMP DP  RH WIND       PRES   REMARKS
YUMA           CLEAR     54  35  48 N8        29.92F
$$

CAZ031-033-041-043-047-048-061-231100-
SOUTHERN CALIFORNIA

CITY           SKY/WX    TMP DP  RH WIND       PRES   REMARKS
DOWNTOWN L.A.  CLEAR     55  29  36 N8        30.05S
L.A. AIRPORT   PTCLDY    53  31  42 NW8       30.06S
SAN DIEGO      MOCLDY    57  47  69 NW8       30.06F
BURBANK        CLEAR     50  28  42 NW17G26   30.04S
ONTARIO        PTCLDY    44  42  93 E5        30.02F
RIVERSIDE      CLEAR     44  42  93 VRB5      30.03F
PALM SPRINGS   CLEAR     57  34  41 W5        29.91R
EL CENTRO NAS  CLEAR     54  35  48 W9        29.95F
BLYTHE         CLEAR     52  28  39 N5        29.92S
NEEDLES        CLEAR     53  21  28 W21G28    29.88F
$$

NVZ020-UTZ003-231100-
SOUTHERN NEVADA-UTAH

CITY           SKY/WX    TMP DP  RH WIND       PRES   REMARKS
LAS VEGAS      PTCLDY    46  29  51 S5        29.85S
SALT LAKE CITY CLOUDY    30  27  88 SE8       29.70F WCI  22
$$

NMZ009-TXZ055-231100-
NEW MEXICO-WEST TEXAS

CITY           SKY/WX    TMP DP  RH WIND       PRES   REMARKS
ALBUQUERQUE    CLEAR     48  27  44 S15       29.70F
EL PASO        CLEAR     62  29  28 SW9       29.81S
$$


........................KEY........................
SKY/WX - SKY CONDITION/WEATHER
TMP    - TEMPERATURE IN FAHRENHEIT
DP     - DEW POINT IN FAHRENHEIT
RH     - RELATIVE HUMIDITY IN PERCENT
WIND   - DIRECTION AND SPEED IN MILES PER HOUR (MPH)
VRB    - VARIABLE WIND DIRECTION
PRES   - MEAN SEA LEVEL PRESSURE IN INCHES OF MERCURY
         F - FALLING PRESSURE   R - RISING PRESSURE
         S - STEADY PRESSURE
VSB    - VISIBILITY IN MILES
HX     - HEAT INDEX IN FAHRENHEIT
WCI    - WIND CHILL INDEX IN FAHRENHEIT
TC     - TEMPERATURE IN CELSIUS WHICH IS ALSO KNOWN AS
         TEMPERATURE IN CENTIGRADE
AFB    - AIR FORCE BASE
         LUKE AFB IS LUKE AIR FORCE BASE
         DAVIS-MONTHAN IS DAVIS-MONTHAN AIR FORCE BASE
NAS    - NAVAL AIR STATION
         EL CENTRO NAS IS EL CENTRO NAVAL AIR STATION
N/A    - NOT AVAILABLE





USA.gov is the U.S. government's official web portal to all federal, state and local government web resources and services.